Regional Weather Roundup
Issued by NWS Sterling, VA

Home | Current Version | Previous Version | Graphics & Text | Print | Product List | Glossary On
Versions: 1 2 3 4 5 6 7 8 9 10 11 12 13 14 15 16 17 18 19 20 21 22 23 24 25 26 27 28 29 30 31 32 33 34 35 36 37 38 39 40 41 42 43 44 45 46 47 48 49 50
133
ASUS41 KLWX 051910
RWRLWX

REGIONAL WEATHER ROUNDUP
NATIONAL WEATHER SERVICE BALTIMORE MD/WASHINGTON DC
200 PM EST MON DEC 05 2016

Note: "FAIR" indicates few or no clouds below 12,000 feet
with no significant weather and/or obstructions to visibility.
 TC=TEMPERATURE CELSIUS

 * =Non NWS site. Station does not report precipitation (e.g. rain,
    snow, etc.), thunder, or fog.

DCZ001-MDZ009-015-VAZ040>042-051-053>054-052000-
WASHINGTON METRO

CITY           SKY/WX    TMP DP  RH WIND       PRES   REMARKS
WASHINGTON NAT PTSUNNY   56  37  49 N12       30.03R
DULLES         PTSUNNY   55  35  47 NW12      30.01S
ANDREWS AFB    SUNNY     54  35  49 NW14      30.01R
FT BELVOIR     SUNNY     57  34  42 NW8       30.01F
QUANTICO       MOSUNNY   47  43  86 S6        30.04S
COLLEGE PARK*  SUNNY     52  34  50 NW9       30.01S
LEESBURG*      SUNNY     54  37  54 NW8       30.02S
MANASSAS*      MOSUNNY   54  43  66 CALM      30.02S
GAITHERSBURG*  MOSUNNY   52  36  54 N6        30.05S

$$

MDZ006>007-011-014-052000-
BALTIMORE METRO

CITY           SKY/WX    TMP DP  RH WIND       PRES   REMARKS
BWI AIRPORT    PTSUNNY   54  36  50 NW9       30.01R
MD SCIENCE CTR   N/A     54  34  46 MISG      30.03S
MARTIN STATE   MOSUNNY   54  41  62 W12       30.02S
ANNAPOLIS      SUNNY     55  38  52 NW9       30.01R
FORT MEADE*    SUNNY     52  36  54 N6        30.04R

$$

MDZ012-015-019>023-052000-
MARYLAND EASTERN SHORE

CITY           SKY/WX    TMP DP  RH WIND       PRES   REMARKS
OCEAN CITY     PTSUNNY   53  43  68 N9G18     30.00S
SALISBURY      MOSUNNY   53  41  63 NW10      30.00R
BAY BRIDGE AP* SUNNY     50  41  71 N6        30.02S
CAMBRIDGE*     SUNNY     48  41  76 NW8       30.02R
EASTON*        PTSUNNY   50  41  71 N7        30.05S

$$

MDZ017>025-052000-
SOUTHERN MARYLAND

CITY           SKY/WX    TMP DP  RH WIND       PRES   REMARKS
PATUXENT RIVER MOSUNNY   51  42  71 CALM      30.02R
ST INIGOES     MOSUNNY   52  43  71 S5        30.01S
LEONARDTOWN*   SUNNY     52  39  62 N7        30.03R

$$

MDZ003>005-052000-
NORTH CENTRAL MARYLAND

CITY           SKY/WX    TMP DP  RH WIND       PRES   REMARKS
FREDERICK*     MOSUNNY   54  39  58 W9        30.05R
HAGERSTOWN APT SUNNY     52  32  46 NW10      30.00S
WESTMINSTER*   MOSUNNY   48  36  61 NW5       30.00S

$$

MDZ501>502-052000-
WESTERN MARYLAND

CITY           SKY/WX    TMP DP  RH WIND       PRES   REMARKS
OAKLAND*       PTSUNNY   36  32  87 W6        30.00R
CUMBERLAND*    NOT AVBL

$$

VAZ025>031-052000-
SHENANDOAH VALLEY

CITY           SKY/WX    TMP DP  RH WIND       PRES   REMARKS
WINCHESTER*    SUNNY     52  32  46 NW9       30.01S
FRONT ROYAL*   FAIR      54  32  43 N6        29.99F
LURAY*         FAIR      55  36  47 CALM      29.99S
NEW MARKET*    FAIR      56  25  31 N5        29.99S
STAUNTON*      SUNNY     53  32  45 W3        30.03S
WAYNESBORO*    FAIR      55  33  43 NW6       30.00S

$$

WVZ021-048>050-054>055-052000-
EASTERN WEST VIRGINIA PANHANDLE

CITY           SKY/WX    TMP DP  RH WIND       PRES   REMARKS
MARTINSBURG    SUNNY     53  31  42 NW8       30.01S
PETERSBURG*    SUNNY     54  32  43 W7        30.03R

$$

VAZ036>039-050-052000-
CENTRAL FOOTHILLS

CITY           SKY/WX    TMP DP  RH WIND       PRES   REMARKS
CHARLOTTESVILL SUNNY     57  38  48 SW5       30.00F
CULPEPER*      SUNNY     54  43  67 CALM      30.03S
ORANGE*          N/A     54  43  66 CALM      30.03S
GORDONSVILLE*  FAIR      56  38  50 W5        30.00F
WARRENTON*     FAIR      55  39  53 CALM      30.01F

$$

VAZ055>057-052000-
NORTH AND CENTRAL PIEDMONT

CITY           SKY/WX    TMP DP  RH WIND       PRES   REMARKS
FREDERICKSBRG* SUNNY     51  44  75 NW3       30.02S
STAFFORD*      SUNNY     53  42  65 N5        30.06S

$$

NCZ024-NYZ072-PAZ021-071-VAZ022-071-052000-
OTHER REGIONAL OBSERVATIONS

CITY           SKY/WX    TMP DP  RH WIND       PRES   REMARKS
NEW YORK CITY  SUNNY     48  34  58 MISG      29.98R
PHILADELPHIA   PTSUNNY   50  36  58 W13       30.01R
ROANOKE        SUNNY     58  34  40 N7        30.01F
RICHMOND       PTSUNNY   50  42  74 NW5       30.03S
RALEIGH        MOSUNNY   58  42  55 NE8       30.00F

$$

ANZ530>537-052000-
MARINE OBSERVATIONS

STATION/POSITION TIME  TEMP    WIND        PRES
                       AIR SEA DIR/SP/G
                 (UTC) (F)     (DEG/KT/KT) (MB)
THOMAS PT LIGHT  1900   49 49   80/  3/  4   N/A
BALT KEY BRIDGE  1848   52     300/ 12/ 14 1016.3R
COVE POINT       1848   46      CALM  /  4 1017.1R
LEWISETTA        1848   51 49  340/  3/  5 1016.3R
SOLOMONS ISLAND  1842   48 51   80/  3/  7   N/A
PINEY POINT      1848          310/  7/  8   N/A

$$





USA.gov is the U.S. government's official web portal to all federal, state and local government web resources and services.